GLOBALSTAR M036 [-]

Last updated on Fri Dec 29 2023 00:02:56 GMT+0000 (Coordinated Universal Time)

1 25623U 99004C 23362.44775120 -.00000064 00000+0 28014-3 0 9994 2 25623 51.9936 214.9945 0012468 102.6285 332.0337 11.86558113115245
UTC large
Height (km)
Speed (km/s)
/
Latitude / Longitude
Inclination (degrees)
Orbital Period (minutes)
Azimuth
Elevation
Range (km)
Doppler Factor

Next 0 passes for location: London (51.5072 / 0.1276)

Sorry there are no passes over London.